Location: Alladorf
(49.9620°N, 11.3790°E)
Time: 21:30:16
(UTC+00:00)

Lacrosse 5 - Pass Details

Date: 29 November 2020
Orbit: 713 x 726 km, 57.0° (Epoch: 22 January)

Event Time Altitude Azimuth Distance (km) Brightness Sun altitude
Exits shadow 04:32:06 34° 226° (SW) 1,176 2.6 -21.2°
Maximum altitude 04:34:21 80° 144° (SE) 729 1.9 -20.8°
Drops below altitude 10° 04:39:24 10° 58° (ENE) 2,198 5.0 -20.0°
Sets 04:41:47 0° 57° (ENE) 3,121 5.9 -19.6°
